Weather in Uruapan

Mexico     19°25′10″N   102°03′03″W
temp.,
°C
wind,
m/s
gust,
m/s
humid.,
%
clouds,
%
prec.,
mm/h
press.,
hPa
HPBL,
m
18 april, sun
sun1801:00+12nnw21370 0.0 101715
04:00+11nnw22410 0.0 101620
07:00+11n21440 0.0 101617
10:00+19s22250 0.0 1015719
13:00+24sse44150 0.0 10131712
16:00+25s44140 0.0 10101958
19:00+22s35130 0.0 10111383
22:00+12n21270 0.0 101616
19 april, mon
mon1901:00+11n21330 0.0 101717
04:00+10n22330 0.0 101619
07:00+10n222935 0.0 101718
10:00+19sse221818 0.0 1015666
13:00+23s45120 0.0 10131653
16:00+24s4512100 0.0 10111951
19:00+21s34155 0.0 10121271
22:00+12n21254 0.0 101715
20 april, tue
tue2001:00+11n22291 0.0 101817
04:00+10n22290 0.0 101719
07:00+10n22261 0.0 101717
10:00+19sse22180 0.0 1016665
13:00+24s44130 0.0 10141759
16:00+25s43105 0.0 10121964
19:00+22s341232 0.0 10121218
22:00+13n222156 0.0 101717
21 april, wed
wed2101:00+12nnw22235 0.0 101919
04:00+11n22260 0.0 101717
07:00+11n22260 0.0 101819
10:00+20sse22140 0.0 1017703
13:00+25s43111 0.0 10161788
16:00+26s431116 0.0 10132019
19:00+22s341468 0.0 10131296
22:00+14n22205 0.0 101717
22 april, thu
thu2201:00+12n212219 0.0 101817
04:00+11n222598 0.0 101718
07:00+11n222198 0.0 101820
10:00+21sse221491 0.0 1016722
13:00+25s4311100 0.0 10151775
16:00+26s4211100 0.0 10121894
19:00+22s331493 0.0 10121075
22:00+14nnw222292 0.0 101717